FENGYUN 1C DEB

Satellite information

Favourite Embed

Satellite Type and Status

DEBRISIN ORBIT

Key statistics

Satellite FENGYUN 1C DEB at a glance.

Uptime

9715

Days in orbit

Revolutions

≈ 14.2

Per day

Orbit

SSO

Sun Synchronous Orbit

Inclination

99.0

Latest

Satellite identification and parameters

Extended collection of information and parameters for FENGYUN 1C DEB.

Object identification

Identified? True

Debris? True

Object name: FENGYUN 1C DEB

International designator: 1999-025AHS

Object number (NORAD): 30504

Object ID (CCSDS): 30504

Country: PEOPLES REPUBLIC OF CHINA (PRC)

Current information (Y/N): Y

RCS size: SMALL

Orbital parameters

Period: 101.374 minutes

Inclination: 99.0255 deg

SMA: 7201.847 km

Apoapsis: 904.434 km

Periapsis: 742.991 km

RAAN: 31.2149 deg

Eccentricy: 0.01120841

Argument of periapsis: 221.2173 deg

Mean anomaly: 157.6074 deg

Mean motion: 14.2048578 rev/day

Mean motion (dot): 0.00001719 rev/day2

B* drag term: 0.00077210917 1/REarth

Two-line elements (TLE)

Creation date: Dec. 11, 2025, 10:54 a.m.

Reference frame: TEME

Reference center: EARTH

Epoch: Dec. 11, 2025, 1:38 a.m. UTC

TLE line 0: 0 FENGYUN 1C DEB

TLE line 1: 1 30504U 99025AHS 25345.06859406 .00001719 00000-0 77211-3 0 9993

TLE line 2: 2 30504 99.0255 31.2149 0112084 221.2173 157.6074 14.20485780973703

Live tracking on map

Real-time ground track for satellite FENGYUN 1C DEB.

In-orbit conjunctions

A list of the most updated potential collisions computed for object FENGYUN 1C DEB.

Target Orbit TCA Probability of collision Miss distance Type
COSMOS 1375 DEB LEO 2025-04-09 08:08:03 0.0001842401 223.0 (m) DEBRIS
FENGYUN 1C DEB SSO 2024-11-12 12:37:54 0.0003670151 501.0 (m) DEBRIS

Associated space launch

Chinese polar orbiting meteorological satellite

FENGYUN 1C DEB was lifted into orbit during the mission ‘Long March 4B | Feng Yun 1C’, on board a Long March 4B space rocket.

The launch took place on May 10, 1999, 1:33 a.m. from Launch Complex 7.

For more information about the launch, click the button.

Launch to space Long March 4B | Feng Yun 1C
Long March 4B | Feng Yun 1C

Agency: N/A

Status: Launch Successful

Launch date: May 10, 1999, 1:33 a.m. UTC

Rocket: Long March 4B

Launch pad: Launch Complex 7

Location: Taiyuan Satellite Launch Center, People's Republic of China

...

Latest news about this satellite

There are no fresh news available about this satellite. Check back as we update our databases every day.


Newsletter sign-up

Weekly statistics, charts and insights to help you stay on top of the space industry.